Flag for Belgium Weather past 2 weeks in Charleroi, Belgium

41 °F


Feels Like: 38 °F
Forecast: 36 / 43 °F
Wind: 5 mph from West

Location: Charleroi / Gosselies

Current Time: Nov 26, 2015 at 11:59:44 AM

Latest Report: Nov 26, 2015 at 11:20 AM

Visibility: 4 mi

Pressure: 30.07 "Hg

Humidity: 93%

Dew point: 39 °F

Location of CharleroiLocation

Historic Weather in Charleroi — Graph


Charleroi temperature yesterday

Maximum temperature yesterday: 45 °F (at 12:20 PM)
Minimum temperature yesterday: 37 °F (at 8:50 PM)
Average temperature yesterday: 41 °F

Past Weeks' High & Low Weather Summary

High59 °F (Nov 12, 3:20 PM)100% (Nov 16, 12:20 PM)30.39 "Hg (Nov 16, 12:20 PM)
Low30 °F (Nov 23, 3:20 AM)59% (Nov 13, 2:50 PM)29.42 "Hg (Nov 21, 12:20 PM)
Average46 °F88%29.98 "Hg
* Reported Nov 11 10:20 AM — Nov 26 10:50 AM, Charleroi, Weather by CustomWeather, © 2015

Note: Actual official high and low records may vary slightly from our data, if they occured in-between our weather recording intervals... More about our weather records


Charleroi weather history for previous 24 hours

Time TempWeatherWind HumidityBarometerVisibility
10:50 AM
Thu, Nov 26
39 °FClear.5 mph93%30.07 "Hg4 mi
10:20 AM39 °FClear.3 mph93%30.04 "Hg4 mi
9:50 AM37 °FClear.5 mph100%30.04 "Hg4 mi
9:20 AM37 °FPassing clouds.3 mph100%30.04 "HgN/A
8:50 AM37 °FPassing clouds.6 mph93%30.01 "HgN/A
8:20 AM37 °FScattered clouds.1 mph93%30.01 "Hg4 mi
7:50 AM37 °FPassing clouds.6 mph93%30.01 "Hg6 mi
7:20 AM37 °FPassing clouds.5 mph93%29.98 "Hg6 mi
6:50 AM36 °FPassing clouds.5 mph100%29.98 "Hg6 mi
6:20 AM37 °FPassing clouds.5 mph93%29.95 "HgN/A
5:50 AM37 °FPassing clouds.5 mph93%29.95 "HgN/A
5:20 AM36 °FPassing clouds.6 mph100%29.95 "HgN/A
4:50 AM36 °FPassing clouds.6 mph100%29.95 "HgN/A
3:50 AM36 °FPassing clouds.6 mph100%29.92 "HgN/A
3:20 AM36 °FPassing clouds.5 mph100%29.92 "HgN/A
2:50 AM36 °FPassing clouds.3 mph100%29.92 "HgN/A
2:20 AM36 °FPassing clouds.5 mph100%29.92 "HgN/A
1:50 AM37 °FPassing clouds.5 mph100%29.92 "HgN/A
1:20 AM37 °FPassing clouds.5 mph93%29.89 "HgN/A
12:50 AM39 °FPassing clouds.5 mph93%29.89 "HgN/A
12:20 AM39 °FSprinkles. Partly cloudy.5 mph93%29.89 "HgN/A
11:50 PM
Wed, Nov 25
39 °FSprinkles. Partly cloudy.6 mph93%29.89 "Hg4 mi
11:20 PM39 °FSprinkles. Partly cloudy.6 mph93%29.89 "Hg3 mi
10:50 PM39 °FSprinkles. Partly cloudy.7 mph93%29.86 "HgN/A
10:20 PM39 °FSprinkles. Partly cloudy.5 mph93%29.86 "HgN/A
9:50 PM39 °FSprinkles. Partly cloudy.6 mph93%29.86 "HgN/A
9:20 PM37 °FPassing clouds.6 mph100%29.83 "HgN/A
8:50 PM37 °FPassing clouds.6 mph100%29.83 "HgN/A
8:20 PM39 °FPassing clouds.5 mph93%29.83 "HgN/A
7:50 PM39 °FPassing clouds.5 mph93%29.80 "HgN/A
7:20 PM39 °FPassing clouds.5 mph93%29.80 "HgN/A
6:50 PM39 °FPassing clouds.5 mph93%29.80 "HgN/A
6:20 PM39 °FPassing clouds.3 mph93%29.77 "HgN/A
5:50 PM39 °FSprinkles. Partly cloudy.5 mph93%29.77 "Hg6 mi
5:20 PM39 °FPassing clouds.5 mph87%29.77 "HgN/A
4:50 PM41 °FPassing clouds.8 mph87%29.77 "HgN/A
4:20 PM41 °FRain showers. Partly sunny.12 mph87%29.77 "Hg2 mi
3:50 PM43 °FSnow flurries. Broken clouds.9 mph81%29.74 "Hg5 mi
3:20 PM45 °FScattered clouds.8 mph81%29.74 "HgN/A
2:50 PM45 °FScattered clouds.7 mph81%29.71 "HgN/A
2:20 PM43 °FPassing clouds.8 mph87%29.74 "HgN/A
1:50 PM43 °FPassing clouds.7 mph81%29.74 "HgN/A
1:20 PM43 °FScattered clouds.7 mph81%29.74 "HgN/A
12:50 PM45 °FScattered clouds.7 mph81%29.74 "HgN/A
12:20 PM45 °FScattered clouds.7 mph87%29.74 "HgN/A
11:50 AM43 °FScattered clouds.7 mph87%29.77 "HgN/A
11:20 AM41 °FBroken clouds.5 mph87%29.77 "HgN/A
Weather by CustomWeather, © 2015

See weather overviewHow to use our weather pages